Regional Weather Roundup
Issued by NWS Sioux Falls, SD

Home | Current Version | Previous Version | Text Only | Print | Product List | Glossary On
Versions: 1 2 3 4 5 6 7 8 9 10 11 12 13 14 15 16 17 18 19 20 21 22 23 24 25 26 27 28 29 30 31 32 33 34 35 36 37 38 39 40 41 42 43 44 45 46 47 48 49 50
364
ASUS43 KFSD 280910
RWRFSD

WEATHER ROUNDUP FOR SE SOUTH DAKOTA/SW MINNESOTA/NW IOWA
NATIONAL WEATHER SERVICE SIOUX FALLS SD
400 AM CDT SUN MAY 28 2017

NOTE: "FAIR" INDICATES FEW OR NO CLOUDS BELOW 12,000 FEET WITH NO
SIGNIFICANT WEATHER AND OR OBSTRUCTIONS TO VISIBILITY.


SDZ038>040-050-052>070-281000-
SOUTHEAST SOUTH DAKOTA

CITY           SKY/WX    TMP DP  RH WIND       PRES   REMARKS
BROOKINGS      CLEAR     51  47  86 W9        29.84S
CHAMBERLAIN    CLEAR     52  46  78 W8        29.91F
HURON          CLEAR     47  44  90 CALM      29.85F
MADISON        FAIR      50  50 100 W10       29.85S
MITCHELL       CLEAR     53  46  77 W10       29.87F
SIOUX FALLS    CLEAR     54  51  90 W9        29.84F
WINNER         FAIR      53  45  74 W10       29.93F
YANKTON        PTCLDY    56  48  74 W13       29.87F
$$

MNZ071-072-080-081-089-090-097-098-281000-
SOUTHWEST MINNESOTA

CITY           SKY/WX    TMP DP  RH WIND       PRES   REMARKS
FAIRMONT       PTCLDY    57  51  80 W10       29.82F
JACKSON        CLEAR     54  46  76 SW9       29.82F
LUVERNE        CLEAR     52  46  82 W10       29.84S
MARSHALL       CLEAR     56  49  77 W17       29.80S
MONTEVIDEO     CLEAR     55  48  76 N10       29.79S
PIPESTONE      CLEAR     54  46  76 NW7       29.83F
REDWOOD FALLS  CLEAR     57  48  72 W9        29.77S
TRACY          CLEAR     57  51  79 W9        29.80S
WINDOM         CLEAR     54  48  82 W8        29.80F
WORTHINGTON    CLEAR     53  48  83 W12       29.83F
$$

IAZ001>003-012>014-020>022-031-032-NEZ013-014-SDZ071-281000-
NORTHWEST IOWA

CITY           SKY/WX    TMP DP  RH WIND       PRES   REMARKS
CHEROKEE       CLEAR     51  50  99 S5        29.86F
DENISON        CLEAR     54  50  87 CALM      29.91S
ESTHERVILLE    CLEAR     53  51  93 W9        29.82F
LE MARS        CLEAR     54  50  87 S7        29.86F
ORANGE CITY    CLEAR     52  52 100 W5        29.85F
SHELDON        CLEAR     52  50  93 SW8       29.82F
SIOUX CITY     LGT RAIN  51  50  96 S6        29.88S
SPENCER        CLEAR     50  48  93 S3        29.84S
STORM LAKE     CLEAR     52  50  93 W10       29.86F
$$

ABBREVIATIONS USED IN REMARKS
   TC - TEMPERATURE IN CELSIUS
  WCI - WIND CHILL INDEX
   HX - HEAT INDEX
  VSB - VISIBILITY





USA.gov is the U.S. government's official web portal to all federal, state and local government web resources and services.